User: anonymous   Login
Location: Moonridge Observatory
(39.2268°N, 77.7914°W)
Time: 00:55:24
(UTC-04:00)
Language:

CZ-2C R/B - Orbit

View from above orbital plane
View from above orbital plane
View from above satellite
View from above satellite

Ground track
Ground track

The orbit data is extracted from the following two-line orbital elements,

1 28480U 04046B   16205.85520829  .00000033  00000-0  27560-4 0  9999
2 28480  98.1859 317.3431 0143314 113.3917 356.5181 14.25601504607456
Epoch (UTC): 23 July 2016 20:31:29
Eccentricity: 0.0143314
inclination: 98.1859°
perigee height: 703 km
apogee height: 909 km
right ascension of ascending node: 317.3431°
argument of perigee: 113.3917°
revolutions per day: 14.25601504
mean anomaly at epoch: 356.5181°
orbit number at epoch: 60745

The dashed part of the orbit path shows where the satellite is in the earth's shadow,  

DLR